Location: Coupvray
(48.8929°N, 2.7967°E)
Time: 13:41:53
(UTC+00:00)

Altair 2 - Pass Details

Date: 23 January 2021
Orbit: 837 x 949 km, 90.2° (Epoch: 28 February)

Event Time Altitude Azimuth Distance (km) Brightness Sun altitude
Rises 17:42:08 0° 166° (SSE) 3,386 10.9 -11.4°
Reaches altitude 10° 17:44:32 10° 163° (SSE) 2,450 10.1 -11.8°
Maximum altitude 17:49:55 64° 83° (E) 930 7.7 -12.7°
Drops below altitude 10° 17:55:22 10° 4° (N) 2,472 10.0 -13.5°
Sets 17:57:47 0° 1° (N) 3,419 10.7 -13.9°
